Location: Highridge
(54.0333°N, 114.1333°W)
Time: 13:17:34
(UTC+00:00)

O/OREOS (USA 219) - Visible Passes

Search period start: 01 December 2023 00:00
Search period end: 11 December 2023 00:00
Orbit: 621 x 646 km, 72.0° (Epoch: 22 May)

Date Brightness Start Highest point End Pass type
(mag) Time Alt. Az. Time Alt. Az. Time Alt. Az.
01 Dec ? 14:47:00 10° N 14:49:20 14° NNE 14:51:41 10° ENE visible
03 Dec ? 13:52:28 10° N 13:53:31 11° NNE 13:54:34 10° NE visible
04 Dec ? 14:13:44 10° N 14:16:14 14° NNE 14:18:45 10° ENE visible
05 Dec ? 14:35:25 10° NNW 14:38:50 21° NE 14:42:15 10° E visible
06 Dec ? 13:19:05 10° N 13:20:25 11° NNE 13:21:45 10° NE visible
06 Dec ? 14:57:13 10° NNW 15:01:17 32° NE 15:05:20 10° ESE visible
07 Dec ? 13:40:29 10° N 13:43:08 15° NNE 13:45:47 10° ENE visible
08 Dec ? 14:02:10 10° NNW 14:05:43 22° NE 14:09:15 10° E visible
09 Dec ? 12:45:45 10° N 12:47:19 12° NNE 12:48:55 10° NE visible
09 Dec ? 14:24:00 10° NNW 14:28:08 34° NE 14:32:16 10° ESE visible
10 Dec ? 13:07:29 11° N 13:10:01 16° NNE 13:12:49 10° ENE visible
10 Dec ? 14:45:56 10° NNW 14:50:24 58° NE 14:54:52 10° SE visible
